Location: 22
(39.7117°N, 89.5929°W)
Time: 22:03:43
(UTC-05:00)

Vanguard 3 - Pass Details

Date: 06 February 2023
Orbit: 508 x 3249 km, 33.4° (Epoch: 24 March)

Event Time Altitude Azimuth Distance (km) Brightness Sun altitude
Rises 20:02:17 0° 263° (W) 4,262 11.9 -30.8°
Reaches altitude 10° 20:04:40 10° 260° (W) 3,571 11.2 -31.2°
Maximum altitude 20:14:19 65° 181° (S) 2,279 9.2 -33.1°
Enters shadow 20:17:56 52° 130° (SE) 2,765 9.3 -33.8°
Drops below altitude 10° 20:30:58 10° 105° (ESE) 5,849 - -36.2°
Sets 20:36:07 0° 103° (ESE) 7,076 - -37.2°
